Temp
19 19 18 18 19 19 22 24 24 23 22 23 23 23 20 19 21 18 18 18 19 18 18 18 18 18 18 18 17 18 18 18 17 17 18 18 17 17 18 18 17 18 18 18 18 18 18 19 19
19 18 19 18 20 22 22 23 24 22 22 23 22 21 20 18 17 17 17 18 19 19 18 18 18 18 17 18 18 18 18 18 18 18 18 18 17 17 17 18 18 18 18 18 18 18 18 19 19
18 18 18 18 21 22 22 23 23 23 23 24 22 21 19 18 17 17 19 18 19 19 18 18 18 18 18 18 18 18 18 18 18 18 18 17 18 17 18 18 18 18 18 18 18 18 18 19 19
18 19 18 20 23 25 24 23 24 23 24 23 21 20 19 19 18 19 19 18 19 19 19 19 18 18 18 18 19 19 18 17 18 18 18 18 17 17 17 18 18 18 18 18 18 18 18 19 18
18 19 19 21 23 24 24 25 24 22 22 22 21 19 18 19 20 19 19 19 19 19 19 19 18 18 18 18 19 19 19 19 18 19 19 18 18 18 17 17 18 18 18 18 18 18 18 18 18
18 18 20 22 25 25 25 24 23 22 21 21 20 19 18 19 20 19 19 19 19 20 19 19 19 19 19 19 19 19 19 19 18 18 18 18 18 18 18 18 17 17 17 18 18 18 18 18 18
19 19 19 21 24 23 22 23 23 22 22 21 21 18 17 19 19 18 19 19 19 19 19 19 19 19 19 19 19 19 19 19 19 19 18 18 18 17 17 17 17 17 17 17 18 18 18 18 18
19 18 21 21 23 23 24 23 22 23 22 21 22 18 17 19 19 18 18 19 19 19 19 20 19 19 19 19 19 18 18 18 18 18 18 18 18 18 18 17 17 17 17 17 18 18 18 18 18
19 19 20 22 23 23 22 23 22 23 21 22 22 20 20 19 18 18 18 19 19 19 19 20 20 19 19 19 18 19 18 18 18 18 18 18 19 19 18 18 17 17 17 18 18 18 19 19 18
20 20 22 22 21 22 22 23 22 22 22 21 20 20 19 19 19 19 19 19 19 19 20 20 19 19 19 19 19 19 19 18 18 18 19 19 19 19 19 18 18 18 18 18 19 19 19 19 19
22 21 23 22 22 21 21 20 23 22 21 21 20 19 19 19 19 20 19 20 20 20 20 20 19 19 19 19 19 19 19 19 19 19 19 20 20 20 20 19 19 19 19 19 19 20 19 19 19
23 24 22 21 21 20 20 18 20 19 19 21 21 20 20 19 19 20 20 19 20 20 19 19 19 18 18 18 19 19 19 19 20 19 19 20 20 20 20 19 19 19 19 19 19 19 19 19 19
24 24 23 21 21 19 20 17 18 18 20 21 20 20 19 20 20 20 20 20 20 20 19 19 19 19 18 18 19 19 19 19 20 20 20 20 20 19 20 20 20 20 19 19 19 19 19 19 19
22 22 22 21 21 20 20 18 19 17 19 21 21 20 20 20 21 20 20 20 20 20 20 19 19 19 19 19 19 19 19 19 19 19 19 20 20 20 20 20 20 20 19 19 19 19 19 19 19
23 22 21 21 20 21 20 19 19 19 20 21 21 21 21 21 21 21 21 21 21 20 20 20 20 20 19 20 20 20 20 19 20 20 20 20 20 20 20 20 20 20 20 19 20 20 20 20 20
24 21 20 21 21 21 20 20 19 18 19 22 21 22 22 22 22 22 21 21 21 21 20 20 20 20 20 20 20 19 20 19 20 20 20 20 21 21 21 20 20 20 20 20 20 20 20 20 20
22 21 21 21 22 21 21 18 19 18 19 20 22 22 22 22 22 22 22 21 21 21 21 20 20 20 20 20 20 20 20 19 20 20 20 21 20 20 21 20 20 20 21 21 21 20 20 20 20
23 21 21 21 21 20 20 19 18 18 19 21 22 22 22 22 22 22 22 22 22 22 21 21 21 20 20 20 20 20 20 20 20 20 20 20 20 20 20 21 20 21 21 21 21 21 21 20 20
24 24 24 23 21 21 20 18 18 19 19 20 21 22 23 22 23 22 22 22 22 21 21 21 21 21 20 20 20 20 20 20 20 20 20 20 20 20 20 20 20 20 21 21 21 21 21 21 21
24 24 23 22 20 21 19 20 20 20 20 20 21 23 23 23 23 23 22 22 22 22 21 21 21 21 20 20 20 21 21 20 21 21 20 20 20 20 20 20 20 20 20 21 21 21 21 21 21
23 23 24 23 20 21 20 21 20 21 21 21 21 22 23 23 23 23 22 22 22 22 22 21 21 21 21 20 20 21 21 20 20 20 21 20 21 20 20 20 20 21 21 21 21 21 21 21 21
22 24 26 22 20 21 22 21 21 20 20 20 22 22 23 23 24 23 23 22 22 22 22 22 21 21 21 20 21 21 21 21 21 21 21 21 21 21 20 20 21 22 22 22 21 21 21 21 21
23 26 25 22 21 20 20 20 20 21 21 20 21 23 23 23 24 23 23 23 23 22 22 22 21 21 21 21 21 21 22 21 21 21 21 21 21 21 20 21 20 21 22 22 22 22 22 22 21
25 26 25 20 19 20 21 21 21 19 24 25 23 23 23 23 24 24 24 24 23 23 22 22 22 21 21 21 21 21 21 21 21 21 21 20 20 20 20 20 20 21 21 22 22 22 22 22 22
23 22 21 20 19 20 19 20 25 24 24 25 25 23 23 24 23 23 23 23 23 23 22 22 22 22 21 21 21 20 21 21 21 21 22 21 21 20 20 20 20 21 21 22 22 22 22 22 22
21 20 18 21 19 21 21 21 24 24 26 26 27 27 23 24 23 23 24 24 24 23 23 22 22 22 21 22 21 21 21 22 21 21 22 22 22 21 21 21 20 21 21 21 22 23 23 22 23
21 20 20 20 20 20 20 22 24 24 22 25 25 26 25 23 24 24 24 24 24 24 23 23 23 22 22 22 21 21 21 20 21 21 22 22 21 21 21 21 21 21 21 22 22 22 22 22 22
22 21 20 17 20 21 20 22 23 24 24 23 24 24 25 24 24 24 23 23 23 24 24 23 23 23 22 22 22 21 21 21 21 21 22 22 21 21 21 21 21 21 21 21 22 22 22 22 22
20 20 19 18 18 20 19 20 21 23 23 23 22 24 25 26 24 24 24 23 23 22 22 22 23 23 23 22 22 21 21 21 21 21 22 22 21 21 21 21 21 21 21 21 22 22 22 22 21
19 19 19 18 20 17 18 21 23 24 21 22 20 21 25 25 25 24 24 23 22 22 23 23 22 23 23 23 22 22 21 21 21 21 21 21 21 21 21 21 22 21 21 21 22 22 22 22 22
Height
1499 1501 1502 1503 1508 1504 1501 1496 1486 1493 1497 1497 1500 1501 1508 1510 1511 1526 1521 1524 1528 1530 1532 1534 1535 1537 1538 1538 1539 1540 1541 1543 1543 1545 1546 1547 1548 1549 1550 1550 1550 1551 1552 1553 1553 1554 1556 1557 1558
1499 1500 1502 1502 1507 1506 1505 1491 1492 1493 1498 1500 1502 1505 1508 1515 1514 1518 1521 1526 1530 1531 1533 1534 1536 1537 1539 1540 1541 1542 1543 1544 1545 1546 1547 1549 1550 1550 1551 1552 1552 1553 1554 1555 1556 1557 1558 1559 1560
1499 1499 1502 1501 1501 1505 1509 1494 1492 1496 1497 1499 1504 1507 1512 1517 1519 1520 1524 1527 1530 1533 1534 1536 1538 1540 1540 1541 1542 1543 1544 1545 1546 1546 1548 1550 1552 1552 1553 1553 1554 1554 1555 1556 1558 1560 1560 1561 1562
1500 1502 1502 1501 1500 1489 1493 1495 1494 1496 1498 1499 1503 1511 1517 1521 1521 1523 1526 1529 1532 1534 1536 1538 1539 1541 1542 1543 1544 1545 1546 1547 1548 1548 1551 1553 1553 1554 1555 1556 1556 1556 1557 1558 1559 1561 1562 1563 1565
1502 1502 1504 1502 1497 1490 1491 1493 1493 1496 1499 1502 1503 1515 1519 1524 1525 1526 1528 1531 1534 1535 1538 1540 1542 1543 1544 1544 1545 1546 1547 1549 1550 1551 1553 1554 1555 1555 1555 1557 1558 1558 1559 1560 1561 1563 1563 1565 1567
1503 1502 1506 1508 1496 1493 1496 1495 1494 1497 1501 1504 1508 1513 1522 1525 1527 1529 1530 1533 1536 1537 1539 1541 1543 1544 1545 1546 1547 1548 1550 1551 1553 1554 1555 1556 1556 1557 1557 1558 1558 1559 1560 1561 1562 1564 1565 1568 1569
1503 1503 1514 1507 1501 1500 1500 1499 1495 1500 1503 1507 1510 1517 1525 1527 1530 1531 1533 1534 1537 1540 1541 1543 1545 1545 1547 1548 1549 1551 1552 1553 1554 1555 1556 1557 1557 1557 1558 1558 1559 1559 1561 1562 1563 1565 1567 1569 1571
1504 1508 1509 1507 1505 1506 1502 1502 1502 1501 1507 1510 1511 1518 1523 1525 1530 1532 1535 1537 1539 1541 1543 1545 1546 1547 1550 1551 1551 1553 1555 1556 1557 1557 1558 1559 1559 1559 1559 1561 1561 1560 1561 1562 1564 1567 1569 1571 1573
1504 1508 1514 1509 1504 1506 1504 1505 1507 1506 1506 1512 1512 1514 1522 1526 1530 1533 1536 1538 1540 1542 1544 1547 1548 1549 1551 1553 1554 1556 1557 1558 1559 1560 1561 1560 1560 1561 1562 1563 1562 1561 1562 1563 1566 1569 1572 1574 1575
1505 1509 1500 1500 1503 1506 1506 1507 1511 1512 1512 1515 1515 1522 1524 1530 1532 1534 1536 1538 1540 1542 1544 1548 1549 1550 1552 1554 1556 1557 1559 1560 1561 1562 1562 1563 1563 1564 1565 1566 1565 1564 1565 1567 1570 1572 1574 1576 1578
1501 1505 1493 1501 1504 1503 1508 1509 1508 1515 1519 1516 1515 1520 1525 1530 1533 1536 1538 1540 1541 1544 1546 1548 1550 1552 1553 1555 1557 1559 1560 1561 1562 1564 1564 1565 1566 1567 1567 1569 1570 1569 1569 1571 1573 1575 1577 1579 1580
1499 1493 1496 1502 1504 1508 1509 1518 1518 1519 1520 1522 1520 1521 1525 1530 1533 1535 1539 1542 1543 1545 1548 1550 1552 1553 1555 1557 1559 1560 1561 1563 1564 1566 1566 1567 1568 1568 1569 1571 1573 1574 1574 1575 1577 1578 1580 1581 1583
1496 1494 1497 1500 1504 1508 1512 1517 1520 1519 1516 1523 1524 1525 1528 1532 1535 1537 1540 1543 1546 1547 1549 1551 1554 1555 1557 1558 1560 1562 1563 1564 1566 1566 1568 1569 1569 1570 1570 1573 1575 1576 1578 1579 1580 1582 1583 1584 1584
1494 1496 1500 1502 1504 1506 1506 1514 1516 1512 1520 1525 1528 1527 1529 1532 1535 1537 1540 1543 1546 1549 1550 1552 1555 1557 1558 1560 1562 1563 1564 1566 1567 1568 1570 1570 1571 1571 1572 1574 1576 1578 1579 1580 1581 1583 1585 1585 1586
1494 1501 1503 1505 1508 1510 1512 1520 1520 1516 1518 1523 1527 1528 1530 1532 1535 1536 1539 1543 1545 1549 1551 1553 1555 1558 1558 1561 1563 1565 1566 1567 1569 1570 1571 1572 1573 1574 1575 1576 1578 1579 1581 1582 1583 1584 1586 1587 1587
1496 1503 1516 1504 1507 1509 1513 1521 1514 1516 1516 1519 1525 1527 1530 1531 1534 1537 1539 1543 1546 1548 1552 1554 1556 1558 1560 1562 1564 1566 1567 1568 1569 1571 1573 1574 1575 1576 1577 1578 1580 1581 1582 1584 1585 1586 1588 1588 1589
1503 1516 1515 1509 1506 1508 1511 1518 1511 1514 1516 1515 1520 1524 1528 1531 1533 1536 1538 1541 1544 1548 1551 1554 1556 1558 1561 1563 1564 1565 1567 1569 1570 1572 1573 1575 1576 1577 1579 1580 1581 1582 1583 1585 1586 1587 1588 1589 1589
1511 1514 1510 1509 1507 1508 1512 1511 1509 1512 1514 1512 1515 1522 1526 1528 1530 1533 1537 1539 1542 1546 1550 1553 1556 1558 1561 1563 1564 1566 1567 1569 1571 1573 1574 1575 1576 1577 1580 1582 1583 1583 1584 1585 1586 1588 1589 1589 1589
1497 1502 1504 1498 1502 1505 1509 1509 1505 1508 1513 1513 1513 1516 1521 1525 1528 1531 1535 1537 1540 1544 1548 1552 1555 1558 1559 1561 1564 1565 1567 1569 1571 1573 1576 1576 1577 1578 1580 1582 1583 1584 1585 1585 1587 1588 1589 1590 1590
1497 1500 1502 1499 1502 1503 1510 1509 1504 1504 1507 1508 1510 1511 1515 1520 1523 1527 1532 1536 1539 1542 1547 1551 1553 1556 1559 1561 1564 1566 1568 1569 1571 1573 1575 1577 1578 1579 1580 1581 1582 1583 1585 1587 1589 1589 1590 1590 1590
1499 1502 1500 1503 1504 1503 1506 1508 1505 1501 1501 1504 1507 1508 1511 1514 1518 1522 1528 1531 1537 1540 1544 1548 1552 1555 1559 1561 1563 1565 1567 1569 1571 1572 1574 1576 1578 1579 1581 1582 1583 1583 1584 1587 1589 1590 1591 1591 1591
1505 1490 1490 1500 1509 1521 1502 1526 1501 1495 1494 1496 1499 1501 1505 1509 1513 1518 1522 1528 1532 1537 1542 1547 1551 1554 1558 1560 1563 1564 1566 1567 1570 1572 1574 1575 1577 1579 1580 1582 1582 1583 1584 1586 1588 1589 1590 1591 1591
1490 1485 1489 1495 1505 1508 1510 1521 1501 1489 1494 1489 1489 1492 1498 1503 1507 1511 1515 1521 1527 1534 1539 1544 1549 1553 1557 1559 1562 1564 1565 1569 1571 1573 1574 1575 1576 1578 1579 1581 1582 1584 1585 1585 1587 1589 1589 1590 1591
1480 1485 1490 1501 1512 1526 1507 1514 1500 1495 1475 1473 1478 1483 1489 1496 1500 1506 1511 1518 1524 1530 1536 1540 1545 1549 1553 1557 1560 1563 1565 1568 1570 1573 1574 1576 1577 1578 1579 1581 1582 1584 1584 1585 1587 1588 1589 1589 1590
1484 1499 1522 1530 1531 1525 1504 1513 1482 1466 1468 1467 1469 1476 1481 1488 1495 1500 1507 1512 1519 1525 1531 1535 1540 1544 1549 1553 1557 1561 1564 1567 1569 1571 1573 1575 1576 1577 1579 1580 1582 1584 1584 1585 1586 1587 1588 1589 1589
1488 1497 1526 1534 1533 1519 1502 1511 1480 1456 1450 1458 1462 1467 1479 1483 1488 1493 1497 1505 1513 1519 1525 1530 1535 1539 1543 1549 1555 1559 1562 1563 1567 1570 1572 1574 1576 1577 1579 1581 1582 1583 1584 1584 1585 1586 1587 1588 1588
1485 1499 1488 1509 1511 1520 1509 1485 1463 1455 1451 1451 1456 1466 1472 1478 1483 1486 1491 1499 1507 1514 1520 1525 1531 1537 1541 1545 1550 1555 1560 1561 1564 1567 1571 1574 1575 1576 1578 1580 1581 1583 1584 1584 1585 1585 1586 1587 1587
1472 1476 1501 1510 1523 1527 1510 1496 1485 1461 1455 1450 1453 1459 1465 1474 1481 1485 1490 1495 1503 1511 1517 1523 1528 1534 1539 1544 1548 1551 1555 1560 1563 1565 1568 1571 1573 1575 1576 1578 1579 1581 1582 1583 1583 1584 1585 1585 1585
1478 1483 1487 1495 1504 1514 1525 1503 1461 1454 1449 1450 1456 1459 1463 1470 1476 1483 1486 1493 1501 1510 1516 1522 1526 1530 1534 1540 1545 1548 1551 1556 1559 1562 1564 1567 1570 1572 1574 1576 1577 1579 1580 1581 1582 1582 1583 1583 1584
1463 1474 1478 1501 1504 1506 1507 1496 1451 1447 1452 1447 1454 1459 1464 1469 1474 1481 1488 1492 1498 1506 1509 1515 1523 1528 1531 1536 1541 1544 1549 1552 1555 1557 1561 1563 1566 1569 1571 1573 1574 1576 1577 1578 1579 1580 1580 1581 1581
Wind_Speed
10 9 4 1 1 1 1 2 3 4 3 3 12 7 10 15 2 4 22 16 19 18 17 15 14 15 14 15 15 15 15 15 15 14 14 15 15 16 15 15 15 14 15 15 14 14 14 14 14
11 7 2 2 1 2 3 3 8 6 15 24 17 12 10 4 8 23 23 20 17 17 18 16 15 15 16 15 15 15 16 15 16 16 16 16 16 15 15 15 15 15 15 16 15 14 14 14 14
9 2 2 1 1 2 3 1 11 18 13 6 7 13 5 5 19 27 22 24 19 18 17 16 16 17 17 16 16 15 16 17 16 16 15 15 15 15 16 15 15 14 14 15 17 15 15 15 15
4 1 2 2 1 0 6 6 14 12 11 10 19 9 10 6 20 20 23 22 20 19 17 16 16 16 16 15 15 15 16 15 16 15 15 15 14 13 14 13 12 12 13 15 17 18 17 17 18
2 1 2 1 3 5 10 18 6 4 7 10 8 7 7 17 21 22 24 20 19 18 16 17 15 16 16 16 15 16 16 16 16 16 14 14 12 11 10 10 10 10 11 13 15 18 19 20 16
1 1 3 3 4 8 8 11 14 13 16 16 16 14 6 22 21 23 22 19 17 17 17 17 16 17 16 16 17 16 16 16 15 13 13 12 11 10 8 8 7 8 9 13 16 18 18 17 14
2 2 2 4 5 3 4 5 10 12 13 9 18 6 16 25 20 21 20 18 18 16 17 17 17 18 17 16 17 16 15 15 14 13 12 12 11 11 9 9 7 8 10 14 18 19 19 16 11
4 2 3 2 3 3 6 3 14 14 7 19 25 7 14 29 23 21 18 16 19 16 16 17 17 18 18 17 17 16 15 14 14 13 12 12 13 13 11 10 9 9 11 14 21 20 20 17 12
5 1 1 4 1 3 12 4 5 7 23 5 5 25 33 29 27 22 20 20 19 17 16 17 18 20 19 16 16 15 15 14 13 13 12 14 14 14 12 13 12 12 13 18 24 22 20 20 14
4 2 5 7 2 2 5 10 4 4 17 15 25 28 33 30 29 24 24 22 20 19 18 19 20 18 17 15 14 15 16 14 13 12 14 13 15 15 16 16 15 17 19 22 26 24 25 19 16
6 5 4 7 7 2 8 16 8 15 1 24 31 36 35 34 29 24 23 19 19 21 22 22 21 18 16 15 16 17 15 11 11 12 13 15 14 14 15 15 17 18 21 23 24 23 19 18 15
4 6 9 11 8 5 3 5 8 8 6 20 31 36 40 37 32 25 23 21 23 23 23 21 19 18 16 13 15 15 12 14 12 9 8 10 12 12 13 14 16 17 22 23 22 21 19 17 12
3 7 8 17 15 14 10 9 7 13 2 17 30 36 38 35 29 23 22 21 23 23 23 20 17 15 14 15 18 16 12 10 10 14 11 11 11 8 13 16 15 16 17 19 19 17 15 13 10
9 17 15 15 14 12 15 8 15 0 6 20 29 34 37 33 25 24 23 23 21 22 20 18 16 15 16 16 18 16 14 13 11 14 12 12 12 12 13 14 13 14 15 14 13 11 10 10 8
22 10 6 4 14 5 14 5 10 17 13 21 28 30 34 29 27 23 23 23 23 20 19 18 17 17 13 16 18 16 15 14 12 12 11 11 15 13 16 17 17 15 13 13 13 12 10 10 8
4 5 3 5 5 6 6 4 10 21 18 24 26 31 32 31 29 24 27 24 22 21 19 18 18 19 15 14 12 13 15 13 14 12 12 15 16 14 15 16 16 16 14 12 10 11 10 9 6
5 4 3 3 7 4 2 2 8 19 17 20 24 28 32 33 31 28 27 27 23 22 21 17 20 20 17 15 11 11 15 15 13 13 9 11 10 13 13 15 17 15 12 10 11 12 10 8 8
4 3 4 5 4 3 4 3 4 15 18 23 22 24 29 32 35 33 31 30 26 23 23 19 18 21 22 18 14 15 15 16 16 12 9 7 10 13 12 12 13 12 11 9 8 9 10 9 8
3 1 6 2 5 3 4 6 10 16 11 12 21 25 28 32 34 33 35 32 30 27 25 21 19 27 26 22 16 12 14 17 17 15 12 9 9 8 8 7 8 10 9 8 8 9 9 6 8
3 3 4 1 5 3 6 7 5 12 16 19 20 24 29 33 34 36 40 37 33 30 25 20 25 31 30 24 20 14 17 17 13 13 14 14 9 7 6 5 6 11 13 14 14 11 10 8 9
3 4 3 2 3 2 4 4 6 8 15 26 26 27 32 34 35 40 43 42 37 34 29 23 25 35 31 25 22 16 16 19 16 13 14 14 10 9 10 6 5 7 15 16 16 16 13 11 11
5 7 8 6 5 4 2 3 5 7 14 14 27 25 32 32 36 43 46 45 41 37 31 25 26 34 31 26 27 22 18 23 17 10 8 12 12 10 9 6 7 6 12 17 18 17 16 15 14
10 7 6 6 5 3 1 3 6 3 8 10 19 31 32 33 38 46 48 46 43 39 35 28 28 29 34 27 27 23 21 21 16 12 9 13 14 10 9 7 7 8 10 16 18 17 14 14 16
3 2 2 4 3 2 6 5 6 6 13 16 20 31 34 37 36 44 48 45 45 42 38 32 30 31 31 32 30 25 22 22 21 16 12 16 16 13 10 8 9 8 9 14 16 16 14 12 12
5 5 2 2 0 6 6 3 13 8 6 13 18 25 32 38 37 42 48 50 48 46 43 37 33 31 32 39 35 28 26 23 23 18 11 12 17 17 13 11 10 10 9 11 12 15 15 13 12
6 9 6 6 4 4 6 6 8 8 22 22 31 32 26 40 41 43 47 52 51 48 46 42 37 33 36 46 39 31 26 24 26 21 16 15 13 15 12 12 9 12 10 10 11 12 14 15 14
4 5 9 5 1 2 5 7 9 5 9 16 24 28 31 36 42 43 46 50 53 50 49 45 40 35 40 48 43 36 30 25 27 23 20 16 15 15 14 12 10 11 10 10 12 13 14 13 12
7 6 4 2 6 5 5 5 5 5 2 3 8 23 28 28 36 37 41 46 50 51 49 47 41 37 36 47 44 41 37 29 26 26 24 22 18 18 17 15 14 12 12 12 12 13 13 12 11
3 3 3 5 5 6 3 7 7 8 8 7 8 12 9 19 26 33 39 39 43 47 47 48 46 42 37 37 46 44 42 36 30 31 26 23 21 21 20 16 19 19 15 14 15 14 15 15 14
8 9 8 5 5 2 4 7 5 3 4 17 14 17 17 20 22 22 24 30 37 43 44 47 47 46 41 37 38 44 44 41 36 35 31 26 26 24 23 19 20 22 20 17 18 17 16 16 16
Wind_Direction
146 153 164 271 275 150 277 33 94 82 54 48 152 122 112 38 73 164 139 151 160 145 141 138 140 134 133 129 124 121 124 123 123 123 125 125 122 116 116 119 123 125 126 130 136 137 131 128 125
154 157 192 237 207 103 5 352 93 106 119 97 84 87 50 79 91 134 146 153 156 146 143 143 140 137 129 130 126 126 123 123 123 124 126 126 122 118 121 114 113 115 116 120 130 139 141 136 131
155 170 331 315 261 109 121 297 115 131 129 113 109 73 75 95 124 142 146 153 152 147 146 140 141 137 136 130 128 125 128 128 126 126 124 122 121 116 116 117 116 113 114 116 122 129 141 143 135
179 331 273 302 14 257 117 153 127 133 71 94 103 73 81 129 136 145 147 153 149 147 146 142 142 138 136 133 132 133 131 131 131 122 123 123 127 127 127 125 124 126 124 119 124 128 142 138 136
153 276 288 327 309 100 128 144 123 100 97 106 111 101 83 144 137 139 148 152 152 146 146 141 141 136 136 136 131 133 133 133 130 126 121 120 123 124 124 127 129 134 135 131 132 134 142 137 126
52 66 23 13 96 107 126 141 102 92 102 101 98 106 102 148 144 144 147 147 148 144 147 142 139 134 136 138 131 130 132 132 129 127 125 123 125 125 129 131 131 143 152 154 145 142 144 141 132
95 44 346 310 90 58 125 129 120 124 101 83 123 94 138 155 152 147 145 145 148 145 146 141 141 137 136 135 128 128 129 128 127 124 122 121 120 121 122 127 139 149 155 161 158 147 146 146 135
77 92 0 346 34 62 130 62 126 113 78 131 125 152 157 162 153 149 150 151 150 145 145 143 142 137 134 131 128 130 128 126 126 126 126 121 122 119 112 110 125 142 147 160 162 148 149 150 141
126 119 47 280 325 44 44 87 176 110 135 139 223 158 156 159 155 153 151 152 152 147 147 144 142 137 135 136 133 131 129 130 129 129 128 127 122 119 112 101 106 111 132 149 157 149 145 145 148
176 204 194 172 87 44 30 55 1 111 150 104 111 144 157 158 158 152 150 149 152 152 149 144 143 143 146 148 143 137 135 132 127 126 129 131 128 124 110 99 97 111 118 136 146 146 147 148 149
191 203 207 130 110 111 15 30 23 126 194 147 145 155 163 163 163 156 150 138 145 145 148 145 144 138 136 138 144 142 142 133 131 131 136 139 136 127 120 115 104 108 119 131 140 143 148 150 150
205 220 132 115 138 154 78 49 34 352 333 172 159 161 170 167 168 164 158 142 146 146 147 144 147 141 134 139 149 148 147 136 133 145 158 144 134 139 129 123 123 120 120 128 132 137 139 146 153
245 122 108 133 113 110 117 88 32 6 28 172 159 161 168 169 171 171 160 148 148 146 148 147 148 145 140 137 143 149 149 141 126 125 143 148 162 129 138 138 140 139 138 135 133 138 146 152 157
100 98 109 133 143 164 160 168 149 324 162 166 160 166 169 171 173 173 171 167 160 156 153 155 152 150 147 151 148 149 142 128 141 128 116 121 135 129 124 144 162 157 159 151 147 151 162 168 179
112 90 58 87 157 176 121 134 208 156 169 171 178 172 176 177 177 179 181 175 167 166 163 160 154 149 151 150 144 147 152 139 138 125 114 129 138 135 133 135 135 147 157 154 149 157 169 176 184
87 85 127 208 180 139 215 148 167 181 179 179 184 184 187 187 190 186 187 181 177 176 176 173 165 163 166 170 165 167 150 147 140 131 120 128 135 126 139 143 154 144 138 145 146 164 177 172 179
6 185 193 291 198 121 177 220 205 201 186 178 186 191 196 194 198 192 186 187 183 188 185 183 178 175 176 178 178 179 168 154 151 139 116 134 140 150 151 152 156 153 145 145 167 180 187 193 211
157 119 218 222 151 109 158 220 146 200 203 181 181 196 205 202 202 199 194 190 190 193 196 193 190 192 179 179 178 165 162 155 157 153 136 141 129 147 151 159 169 173 167 151 156 182 196 210 228
118 123 283 107 132 135 184 176 195 197 214 216 194 197 207 209 207 204 197 194 192 193 197 198 201 185 181 182 187 189 177 163 165 169 170 163 168 162 162 173 172 191 198 209 188 184 182 189 209
130 254 277 295 147 142 181 218 239 193 218 220 222 211 207 208 206 203 198 196 195 194 199 204 190 185 186 186 187 198 185 173 168 171 175 181 173 188 188 179 206 213 211 211 203 200 198 214 212
144 191 247 240 134 35 186 270 194 226 209 224 235 227 209 207 205 198 197 196 196 197 197 201 193 189 189 193 189 195 191 194 188 185 186 199 207 202 197 198 212 200 190 202 206 210 215 222 222
266 176 237 138 121 218 203 265 257 198 198 192 205 204 202 208 208 200 198 197 199 202 200 199 196 188 189 198 194 203 199 193 196 195 210 210 208 218 211 229 221 210 202 205 216 220 229 229 230
238 158 205 174 166 121 88 65 267 157 205 200 202 207 205 203 203 199 201 202 203 203 203 202 200 195 199 202 200 194 193 192 204 204 223 216 214 221 212 204 207 216 214 209 216 228 231 230 235
52 43 37 74 99 286 195 138 261 189 212 209 198 205 208 200 201 206 206 205 204 206 205 204 204 202 203 204 201 200 193 201 209 209 213 210 215 211 205 200 219 227 212 207 214 221 225 230 235
102 90 316 355 302 227 183 152 249 252 217 216 195 206 201 201 197 200 203 204 206 206 206 207 207 205 204 203 203 202 205 207 210 210 217 217 217 211 215 218 218 222 220 217 218 223 227 232 236
168 156 163 187 213 241 172 231 248 240 272 209 212 200 200 200 197 198 208 210 209 208 208 209 209 207 203 197 203 205 209 207 204 213 233 226 227 217 224 226 226 228 224 226 223 223 226 234 240
197 154 192 134 16 76 235 295 307 290 314 188 182 193 194 202 199 199 208 213 212 211 211 211 212 210 203 198 202 204 212 213 209 217 222 220 231 222 223 226 226 228 228 230 229 226 227 229 232
157 182 86 8 176 211 275 265 238 256 146 187 176 186 201 205 202 198 206 213 215 215 215 214 216 213 206 205 208 208 211 214 215 217 223 221 226 223 225 241 246 239 238 233 232 228 227 230 231
89 155 85 127 145 184 183 273 218 235 185 168 107 109 172 215 204 201 205 212 214 217 217 217 218 216 213 213 215 215 213 216 219 221 222 222 224 226 229 245 257 249 249 245 242 238 238 245 244
169 188 164 157 231 216 168 255 274 199 167 131 134 122 150 159 160 174 200 213 216 219 222 223 223 222 222 219 219 219 219 219 222 224 227 228 229 232 236 247 255 244 248 252 249 249 250 255 256